User: anonymous   Login
Location: *
(40.7873°S, 98.7174°E)
Time: 10:41:12
(UTC+00:00)
Language:

Cosmos 1802 Rocket - Orbit

View from above orbital plane
View from above orbital plane
View from above satellite
View from above satellite

Ground track
Ground track

The orbit data is extracted from the following two-line orbital elements,

1 17160U 86093B   22227.91649304  .00000026  00000-0  12220-4 0  9991
2 17160  82.9265 105.3432 0037713 294.3646  76.4189 13.74672478791676
Epoch (UTC): 15 August 2022 21:59:44
Eccentricity: 0.0037713
inclination: 82.9265°
perigee height: 955 km
apogee height: 1010 km
right ascension of ascending node: 105.3432°
argument of perigee: 294.3646°
revolutions per day: 13.74672478
mean anomaly at epoch: 76.4189°
orbit number at epoch: 79167

The dashed part of the orbit path shows where the satellite is in the earth's shadow,  

DLR